Location: PSU-Greenbush Astrophysical Observatory
(37.5140°N, 94.9880°W)
Time: 19:33:42
(UTC-05:00)

BEESAT - Pass Details

Date: 28 February 2020
Orbit: 700 x 709 km, 98.6° (Epoch: 28 March)

Event Time Altitude Azimuth Distance (km) Brightness Sun altitude
Rises 04:05:51 0° 124° (SE) 3,087 ? -33.7°
Reaches altitude 10° 04:08:47 10° 105° (ESE) 2,171 ? -33.1°
Maximum altitude 04:11:50 17° 65° (ENE) 1,733 ? -32.6°
Drops below altitude 10° 04:14:53 10° 25° (NNE) 2,176 ? -32.0°
Sets 04:17:49 0° 6° (N) 3,097 ? -31.4°
